Погода в Партизанске

Погода в Партизанске : погода сейчас, прогноз погоды и архив. Всё, что Вы хотите узнать о погоде в Партизанске!

Хотите узнать прогноз погоды в Партизанске? Тогда Вам сюда: Погода в Партизанске

Поиск расширенной информации на нашем сайте:

Другие новости

Новости СМИ2

Главная страница сайта

Новости сайта

03.07.2017

Напоминаем, что на нашем специализированном сайте Метеоцентр.Азия вы можете получить высокодетализированные автоматические прогнозы погоды по пунктам России, СНГ и мира в авиационном формате (включающие направление и скорость ветра, видимость, явления погоды, количество и форму облачности, нижнюю и верхнюю границу облачности).

Рекомендуем: Применяйте для похудения пластыри SOSO - новейшая разработка!

Погода в Партизанске - сегодня

Время (UTC), дата Ветер
(°,м/с) 
Видим.   Явления Облачность Т
(°С)
Тd
(°С)
f(%) Тe
(°С)
Pmin
(гПа)
dP
(гПа)
Po
(мм)
O2
(г/м3)
Тmin Tmax R s Состояние
почвы
00 17.10.17 050 (СВ) 20000 м    ясно 
+1.7 -2.3 75 +1  1026.2  750  301  -2.7         
03 17.10.17 340 (С) 10-18{20}  20000 м    3/3 1000 м 
[Cu hum]
+8.9 -10.3 25 +6  1024.5  -1  749  293           
06 17.10.17 350 (С) 8-16{18}  20000 м    1/1 1000 м 
[Cu hum]
+8 -13.7 20 +5  1025.4  0.7  750  295           
09 17.10.17 350 (С) 6-11{16}  20000 м    ясно 
+5.7 -11.8 27 +3  1028.1  2.4  752  298    +9.7       
12 17.10.17 330 (СЗ) 2{11}  20000 м    ясно 
+2.6 -8.9 42 +2  1030.7  2.2  753  302           
15 17.10.17 010 (С) 20000 м    ясно 
+1.2 -8.2 49 +1  1031.4  0.6  754  303           
18 17.10.17 010 (С) 20000 м    ясно 
-1.3 -8.1 60 -1  1031.8  0.2  754  306           
21 17.10.17 040 (СВ) 20000 м    ясно 
-2.4 -7.8 66 -2  1031.6  -0.2  754  307  -3        замёрзшая 
00 18.10.17 030 (СВ) 20000 м    5/0 верхняя 
[Ci fib]
+0.2 -7 58 +1  1033.1  1.7  755  305  -3.4         
03 18.10.17 160 (Ю) 20000 м    8/0 верхняя 
[Ci fib]
+8.1 -12.4 22 +9  1030  -2.3  753  296           
06 18.10.17 170 (Ю) 20000 м    10/0 верхняя 
[Ci fib]
+9.7 -14.3 17 +8  1027.1  -2.7  751  294           
09 18.10.17 170 (Ю) 20000 м    10/0 средняя, верхняя 
[Ac As|Ci fib]
+5 -12.7 26 +4  1027.4  -0.1  751  298    +10.5       
12 18.10.17 тихо ()   20000 м    10/1 1000 м средняя, верхняя 
[Sc|Ac trans|Ci fib]
+3.3 -8 43 +3  1027.5  0.1  751  300           
15 18.10.17 330 (СЗ) 20000 м    10/8 1000 м средняя 
[Sc|Ac trans]
+3.6 -8.7 40 +4  1026.5  -0.9  751  299           
18 18.10.17 350 (С) 20000 м    10/10 1000 м 
[Sc]
+3.9 -9 38 +5  1025.4  -1.1  750  299           
21 18.10.17 тихо ()   20000 м    10/10 1000 м 
[Sc]
+4.1 -7.6 42 +4  1024.7  -0.7  749  298  +3        сухая 
00 19.10.17 180 (Ю) 20000 м    10/10 1000 м 
[Sc]
+6.8 -2.3 52 +5  1024.5  -0.1  749  295           
03 19.10.17 200 (Ю) 20000 м    10/10 600 м 
[Sc]
+9 +2.5 64 +8  1023.6  -0.6  749  292           
06 19.10.17 180 (Ю) 10 км  слаб. дождь  10/10 600 м 
[Frnb]
+7.9 +4.8 81 +7  1022.4  -1.2  748  292           
09 19.10.17 200 (Ю) 10 км  слаб. дождь  10/10 300 м 
[Frnb|Ns]
+7.6 +5.1 84 +7  1022.4  748  292    +9.7  0.0     
12 19.10.17 200 (Ю) 20000 м  {дождь}  10/10 600 м 
[St]
+8.2 +4.9 80 +8  1022.5  0.1  748  292           
15 19.10.17 200 (Ю) 20000 м    10/10 300 м 
[Sc]
+9 +4.7 74 +9  1022.6  0.2  748  291           
18 19.10.17 тихо ()   10 км  слаб. дождь  10/10 300 м 
[Frnb|Ns]
+8 +4.6 79 +8  1022.3  -0.4  748  292           
21 19.10.17 040 (СВ) 20000 м  {дождь}  10/9 600 м средняя 
[Sc|As op]
+7.7 +4.8 82 +9  1022  -0.2  748  292  +7.4    0.0    влажная 
00 20.10.17 тихо ()   20000 м  {дождь}  9/9 1000 м 
[Sc]
+9.3 +6 80 +9  1022.7  0.8  748  291  +7.3         
Время (UTC), дата Ветер
(°,м/с) 
Видим.   Явления Облачность Т
(°С)
Тd
(°С)
f(%) Тe
(°С)
Pmin
(гПа)
dP
(гПа)
Po
(мм)
O2
(г/м3)
Тmin Tmax R s Состояние
почвы

Для получения пояснительной информации подведите курсор к названию столбца.

ПОГОДА в Партизанске - архив

Всё, что Вы хотите узнать о погоде в Партизанске - удобно и подробно!

Выберите нужную дату (начиная с 1 января 2015* года) и нажмите кнопку "Найти".
Будут отображены архивные сводки погоды по пункту Партизанск, начиная с указанной даты.


Отображать данные в формате CSV (для использования в таблицах Excel)


Внимание! Наш архив погоды предназначен исключительно для личного некоммерческого использования в познавательных целях. Если Вам необходимы официальные справки о состоянии погоды (для производственных, юридических, коммерческих и т.п. целей), обращайтесь в органы Росгидромета.

*Примечание: данная дата относится к архиву по метеостанциям СССР (Россия, СНГ, Балтия).
Архив по метеостанциям Зарубежной Европы и Азии (кроме Китая) хранится 10 дней, по другим регионам земного шара (Китай, Африка, Америка, Австралия, Океания) - 1 день.

Партизанск - район местоположения метеостанции


Название, широта, долгота, высота метеостанции:
Партизанск 43.2°ш. 133°д. 208 м над ур. моря [Российская Федерация]

Дополнительная информация

В oтличие oт бoльшинства пoгoдных сайтoв мы публикуем пoдрoбную метеoинфoрмацию в детальнoм прoфессиoнальнoм фoрмате.

Характеристики температуры и влажнoсти вoздуха измеряются на высoте 2 м в тени вдали oт зданий и деревьев.
Скoрoсть ветра измеряется на высoте 10 м (на урoвне рoста челoвека скoрoсть ветра ниже в 1.5-2 раза). Если метеoстанция нахoдится в гoрoде или в лесу, тo скoрoсть ветра занижена на 2-4 м/с пo сравнению с oткрытым местoм. Скoрoсть ветра над акватoриями крупных рек и oзёр, а также на вершинах хoлмoв на 2-5 м/с выше, чем в oбычных услoвиях.
Атмoсфернoе давление в разных тoчках местнoсти мoжет значительнo oтличаться oт давления на метеoстанции, в зависимoсти oт услoвий рельефа (при пoдъёме на 10 м давление пoнижается примернo на 1 мм рт.ст.).